Hertfordshire — ZDJS5 — position and weather

sailwx.info

Track history (hours):
 
Tides and Currents Weather Stations Pressure Air Temp Water Temp Dewpoint Dewpoint Depression Visibility Wind Speed Wind Dir Waves Ship Positions

Hertfordshire

Last reported at 2014-Nov-24 17:31 UTC. Time now 2014-Nov-24 18:00 UTC.
Position N 58°59' W 002°58'.

Length 83 m; draft 4.8 m.

Type: Cargo ship. MMSI: 236563000.

Date/timePositionNaut miles runAvg speedWind from/ knotsBaromVisibWave heightAir tempDewpointWater temp
2014-Nov-24 17:31N 58°59' W 002°58'0 0.0
2014-Nov-24 16:31N 58°59' W 002°58'0 0.0
2014-Nov-24 15:31N 58°59' W 002°58'0 0.0
2014-Nov-24 14:31N 58°59' W 002°58'0 0.0
2014-Nov-24 13:31N 58°59' W 002°58'0 0.0
2014-Nov-24 12:31N 58°59' W 002°58'0 0.0
2014-Nov-24 11:31N 58°59' W 002°58'0 0.0
2014-Nov-24 10:31N 58°59' W 002°58'0 0.0
2014-Nov-24 09:31N 58°59' W 002°58'0 0.0
2014-Nov-24 08:31N 58°59' W 002°58'0 0.0
2014-Nov-24 07:31N 58°59' W 002°58'0 0.0
2014-Nov-24 06:31N 58°59' W 002°58'0 0.0
2014-Nov-24 05:31N 58°59' W 002°58'0 0.0
2014-Nov-24 04:31N 58°59' W 002°58'0 0.0
2014-Nov-24 03:31N 58°59' W 002°58'0 0.0
2014-Nov-24 02:31N 58°59' W 002°58'0 0.0
2014-Nov-24 01:31N 58°59' W 002°58'0 0.0
2014-Nov-24 00:31N 58°59' W 002°58'0 0.0
2014-Nov-23 23:31N 58°59' W 002°58'0 0.0
2014-Nov-23 22:31N 58°59' W 002°58'0 0.0
2014-Nov-23 21:31N 58°59' W 002°58'0 0.0
2014-Nov-23 20:31N 58°59' W 002°58'0 0.0
2014-Nov-23 19:31N 58°59' W 002°58'0 0.0
2014-Nov-23 18:31N 58°59' W 002°58'0 0.0
2014-Nov-23 17:31N 58°59' W 002°58'0 0.0
2014-Nov-23 16:31N 58°59' W 002°58'0 0.0
2014-Nov-23 15:31N 58°59' W 002°58'0 0.0
2014-Nov-23 14:31N 58°59' W 002°58'0 0.0
2014-Nov-23 13:31N 58°59' W 002°58'0 0.0
2014-Nov-23 12:31N 58°59' W 002°58'0 0.0
2014-Nov-23 11:31N 58°59' W 002°58'0 0.0
2014-Nov-23 10:31N 58°59' W 002°58'0 0.0
2014-Nov-23 09:31N 58°59' W 002°58'0 0.0
2014-Nov-23 08:31N 58°59' W 002°58'0 0.0
2014-Nov-23 07:31N 58°59' W 002°58'0 0.0
2014-Nov-23 06:31N 58°59' W 002°58'0 0.0
2014-Nov-23 05:31N 58°59' W 002°58'0 0.0
2014-Nov-23 04:31N 58°59' W 002°58'0 0.0
2014-Nov-23 03:31N 58°59' W 002°58'0 0.0
2014-Nov-23 02:31N 58°59' W 002°58'0 0.0
2014-Nov-23 01:31N 58°59' W 002°58'0 0.0
2014-Nov-23 00:31N 58°59' W 002°58'0 0.0
2014-Nov-22 23:28N 58°59' W 002°58'0 0.0
2014-Nov-22 22:31N 58°59' W 002°58'0 0.0
2014-Nov-22 21:28N 58°59' W 002°58'0 0.0
2014-Nov-22 20:31N 58°59' W 002°58'0 0.0
2014-Nov-22 19:28N 58°59' W 002°58'0 0.0
2014-Nov-22 18:31N 58°59' W 002°58'0 0.0
2014-Nov-22 17:33N 58°59' W 002°58'4 4.5
2014-Nov-22 16:34N 59°00' W 002°49'10 9.6
2014-Nov-22 15:33N 58°55' W 002°34'70 9.3
2014-Nov-22 08:05N 57°50' W 001°48'510.2
2014-Nov-22 07:33N 57°45' W 001°44'1110.9
2014-Nov-22 06:32N 57°34' W 001°37'147 9.6
2014-Nov-21 15:11N 55°09' W 000°60'6 9.0
2014-Nov-21 14:34N 55°03' W 001°01'9 9.0
2014-Nov-21 13:33N 54°54' W 001°04'10 9.7
2014-Nov-21 12:31N 54°44' W 001°06'9 9.4
2014-Nov-21 11:33N 54°36' W 001°11'3 2.5
2014-Nov-21 10:34N 54°35' W 001°15'0 0.0
2014-Nov-21 09:33N 54°35' W 001°15'0 0.0
2014-Nov-21 08:24N 54°35' W 001°15'0 0.0
2014-Nov-21 07:21N 54°35' W 001°15'0 0.0
2014-Nov-21 06:26N 54°35' W 001°15'0 0.0
2014-Nov-20 15:34N 54°35' W 001°15'0 0.0
2014-Nov-20 14:22N 54°35' W 001°15'0 0.0
2014-Nov-20 13:22N 54°35' W 001°15'0 0.0
2014-Nov-20 12:13N 54°35' W 001°15'0 0.0
2014-Nov-20 11:28N 54°35' W 001°15'0 0.0
2014-Nov-20 10:09N 54°35' W 001°15'0 0.0
2014-Nov-20 09:24N 54°35' W 001°15'0 0.0
2014-Nov-20 08:24N 54°35' W 001°15'0 0.0
2014-Nov-20 07:27N 54°35' W 001°15'7 0.5
2014-Nov-19 17:33N 54°40' W 001°07'1 1.2
2014-Nov-19 16:33N 54°40' W 001°05'0 0.0
2014-Nov-19 15:33N 54°40' W 001°05'0 0.0
2014-Nov-19 14:23N 54°40' W 001°05'0 0.0
2014-Nov-19 13:26N 54°40' W 001°05'5 5.4
2014-Nov-19 12:33N 54°45' W 001°05'1110.7
2014-Nov-19 11:32N 54°56' W 001°10'58 9.1
2014-Nov-19 05:12N 55°49' W 001°49'6 9.1
2014-Nov-19 04:34N 55°53' W 001°56'9 9.5
2014-Nov-19 03:33N 56°01' W 002°07'10 9.9
2014-Nov-19 02:33N 56°09' W 002°16'1010.0
2014-Nov-19 01:33N 56°18' W 002°25'10 9.9
2014-Nov-19 00:33N 56°26' W 002°34'9 8.4
2014-Nov-18 23:31N 56°27' W 002°50'  
2014-Nov-15 22:15N 56°27' W 002°51'4 6.0
2014-Nov-15 21:33N 56°27' W 002°44'4 4.0
2014-Nov-15 20:31N 56°27' W 002°36'0 0.0
2014-Nov-15 19:31N 56°27' W 002°36'0 0.0
2014-Nov-15 17:22N 56°27' W 002°36'0 0.1
2014-Nov-15 16:10N 56°27' W 002°36'0 0.1
2014-Nov-15 15:25N 56°27' W 002°36'0 0.0
2014-Nov-15 14:25N 56°27' W 002°36'0 0.0
2014-Nov-15 13:28N 56°27' W 002°36'0 0.1
2014-Nov-15 12:28N 56°27' W 002°36'0 0.1
2014-Nov-15 11:10N 56°27' W 002°36'0 0.0
2014-Nov-15 10:28N 56°27' W 002°36'0 0.0
2014-Nov-15 09:31N 56°27' W 002°36'0 0.0
2014-Nov-15 08:31N 56°27' W 002°36'0 0.0
2014-Nov-15 07:31N 56°27' W 002°36'2 1.6
2014-Nov-15 06:33N 56°26' W 002°35'9 9.1
2014-Nov-15 05:33N 56°18' W 002°26'10 9.6
2014-Nov-15 04:33N 56°10' W 002°17'1010.1
2014-Nov-15 03:33N 56°01' W 002°07'60 9.8
2014-Nov-14 21:27N 55°13' W 001°05'  
Track history (hours):
 
Tides and Currents Weather Stations Pressure Air Temp Water Temp Dewpoint Dewpoint Depression Visibility Wind Speed Wind Dir Waves Ship Positions

Hertfordshire

Last reported at 2014-Nov-24 17:31 UTC. Time now 2014-Nov-24 18:00 UTC.
Position N 58°59' W 002°58'.

Length 83 m; draft 4.8 m.

Type: Cargo ship. MMSI: 236563000.

Date/timePositionNaut miles runAvg speedWind from/ knotsBaromVisibWave heightAir tempDewpointWater temp
2014-Nov-24 17:31N 58°59' W 002°58'0 0.0
2014-Nov-24 16:31N 58°59' W 002°58'0 0.0
2014-Nov-24 15:31N 58°59' W 002°58'0 0.0
2014-Nov-24 14:31N 58°59' W 002°58'0 0.0
2014-Nov-24 13:31N 58°59' W 002°58'0 0.0
2014-Nov-24 12:31N 58°59' W 002°58'0 0.0
2014-Nov-24 11:31N 58°59' W 002°58'0 0.0
2014-Nov-24 10:31N 58°59' W 002°58'0 0.0
2014-Nov-24 09:31N 58°59' W 002°58'0 0.0
2014-Nov-24 08:31N 58°59' W 002°58'0 0.0
2014-Nov-24 07:31N 58°59' W 002°58'0 0.0
2014-Nov-24 06:31N 58°59' W 002°58'0 0.0
2014-Nov-24 05:31N 58°59' W 002°58'0 0.0
2014-Nov-24 04:31N 58°59' W 002°58'0 0.0
2014-Nov-24 03:31N 58°59' W 002°58'0 0.0
2014-Nov-24 02:31N 58°59' W 002°58'0 0.0
2014-Nov-24 01:31N 58°59' W 002°58'0 0.0
2014-Nov-24 00:31N 58°59' W 002°58'0 0.0
2014-Nov-23 23:31N 58°59' W 002°58'0 0.0
2014-Nov-23 22:31N 58°59' W 002°58'0 0.0
2014-Nov-23 21:31N 58°59' W 002°58'0 0.0
2014-Nov-23 20:31N 58°59' W 002°58'0 0.0
2014-Nov-23 19:31N 58°59' W 002°58'0 0.0
2014-Nov-23 18:31N 58°59' W 002°58'0 0.0
2014-Nov-23 17:31N 58°59' W 002°58'0 0.0
2014-Nov-23 16:31N 58°59' W 002°58'0 0.0
2014-Nov-23 15:31N 58°59' W 002°58'0 0.0
2014-Nov-23 14:31N 58°59' W 002°58'0 0.0
2014-Nov-23 13:31N 58°59' W 002°58'0 0.0
2014-Nov-23 12:31N 58°59' W 002°58'0 0.0
2014-Nov-23 11:31N 58°59' W 002°58'0 0.0
2014-Nov-23 10:31N 58°59' W 002°58'0 0.0
2014-Nov-23 09:31N 58°59' W 002°58'0 0.0
2014-Nov-23 08:31N 58°59' W 002°58'0 0.0
2014-Nov-23 07:31N 58°59' W 002°58'0 0.0
2014-Nov-23 06:31N 58°59' W 002°58'0 0.0
2014-Nov-23 05:31N 58°59' W 002°58'0 0.0
2014-Nov-23 04:31N 58°59' W 002°58'0 0.0
2014-Nov-23 03:31N 58°59' W 002°58'0 0.0
2014-Nov-23 02:31N 58°59' W 002°58'0 0.0
2014-Nov-23 01:31N 58°59' W 002°58'0 0.0
2014-Nov-23 00:31N 58°59' W 002°58'0 0.0
2014-Nov-22 23:28N 58°59' W 002°58'0 0.0
2014-Nov-22 22:31N 58°59' W 002°58'0 0.0
2014-Nov-22 21:28N 58°59' W 002°58'0 0.0
2014-Nov-22 20:31N 58°59' W 002°58'0 0.0
2014-Nov-22 19:28N 58°59' W 002°58'0 0.0
2014-Nov-22 18:31N 58°59' W 002°58'0 0.0
2014-Nov-22 17:33N 58°59' W 002°58'4 4.5
2014-Nov-22 16:34N 59°00' W 002°49'10 9.6
2014-Nov-22 15:33N 58°55' W 002°34'70 9.3
2014-Nov-22 08:05N 57°50' W 001°48'510.2
2014-Nov-22 07:33N 57°45' W 001°44'1110.9
2014-Nov-22 06:32N 57°34' W 001°37'147 9.6
2014-Nov-21 15:11N 55°09' W 000°60'6 9.0
2014-Nov-21 14:34N 55°03' W 001°01'9 9.0
2014-Nov-21 13:33N 54°54' W 001°04'10 9.7
2014-Nov-21 12:31N 54°44' W 001°06'9 9.4
2014-Nov-21 11:33N 54°36' W 001°11'3 2.5
2014-Nov-21 10:34N 54°35' W 001°15'0 0.0
2014-Nov-21 09:33N 54°35' W 001°15'0 0.0
2014-Nov-21 08:24N 54°35' W 001°15'0 0.0
2014-Nov-21 07:21N 54°35' W 001°15'0 0.0
2014-Nov-21 06:26N 54°35' W 001°15'0 0.0
2014-Nov-20 15:34N 54°35' W 001°15'0 0.0
2014-Nov-20 14:22N 54°35' W 001°15'0 0.0
2014-Nov-20 13:22N 54°35' W 001°15'0 0.0
2014-Nov-20 12:13N 54°35' W 001°15'0 0.0
2014-Nov-20 11:28N 54°35' W 001°15'0 0.0
2014-Nov-20 10:09N 54°35' W 001°15'0 0.0
2014-Nov-20 09:24N 54°35' W 001°15'0 0.0
2014-Nov-20 08:24N 54°35' W 001°15'0 0.0
2014-Nov-20 07:27N 54°35' W 001°15'7 0.5
2014-Nov-19 17:33N 54°40' W 001°07'1 1.2
2014-Nov-19 16:33N 54°40' W 001°05'0 0.0
2014-Nov-19 15:33N 54°40' W 001°05'0 0.0
2014-Nov-19 14:23N 54°40' W 001°05'0 0.0
2014-Nov-19 13:26N 54°40' W 001°05'5 5.4
2014-Nov-19 12:33N 54°45' W 001°05'1110.7
2014-Nov-19 11:32N 54°56' W 001°10'58 9.1
2014-Nov-19 05:12N 55°49' W 001°49'6 9.1
2014-Nov-19 04:34N 55°53' W 001°56'9 9.5
2014-Nov-19 03:33N 56°01' W 002°07'10 9.9
2014-Nov-19 02:33N 56°09' W 002°16'1010.0
2014-Nov-19 01:33N 56°18' W 002°25'10 9.9
2014-Nov-19 00:33N 56°26' W 002°34'9 8.4
2014-Nov-18 23:31N 56°27' W 002°50'  
2014-Nov-15 22:15N 56°27' W 002°51'4 6.0
2014-Nov-15 21:33N 56°27' W 002°44'4 4.0
2014-Nov-15 20:31N 56°27' W 002°36'0 0.0
2014-Nov-15 19:31N 56°27' W 002°36'0 0.0
2014-Nov-15 17:22N 56°27' W 002°36'0 0.1
2014-Nov-15 16:10N 56°27' W 002°36'0 0.1
2014-Nov-15 15:25N 56°27' W 002°36'0 0.0
2014-Nov-15 14:25N 56°27' W 002°36'0 0.0
2014-Nov-15 13:28N 56°27' W 002°36'0 0.1
2014-Nov-15 12:28N 56°27' W 002°36'0 0.1
2014-Nov-15 11:10N 56°27' W 002°36'0 0.0
2014-Nov-15 10:28N 56°27' W 002°36'0 0.0
2014-Nov-15 09:31N 56°27' W 002°36'0 0.0
2014-Nov-15 08:31N 56°27' W 002°36'0 0.0
2014-Nov-15 07:31N 56°27' W 002°36'2 1.6
2014-Nov-15 06:33N 56°26' W 002°35'9 9.1
2014-Nov-15 05:33N 56°18' W 002°26'10 9.6
2014-Nov-15 04:33N 56°10' W 002°17'1010.1
2014-Nov-15 03:33N 56°01' W 002°07'60 9.8
2014-Nov-14 21:27N 55°13' W 001°05'  

Dump ship's entire track history